Location: Chavenne
(46.6022°N, 3.2951°E)
Time: 10:06:29
(UTC+00:00)

STARLINK-1225 - Pass Details

Date: 09 April 2020
Orbit: 549 x 550 km, 53.0° (Epoch: 04 June)

Event Time Altitude Azimuth Distance (km) Brightness Sun altitude
Rises 19:17:00 0° 296° (WNW) 2,723 9.6 -9.0°
Reaches altitude 10° 19:19:20 10° 303° (WNW) 1,828 7.8 -9.4°
Maximum altitude 19:23:19 43° 17° (NNE) 776 4.4 -10.0°
Enters shadow 19:26:54 12° 88° (E) 1,679 5.5 -10.6°
